Hyannis, MA

3:02 AM EDT on August 21, 2017 (GMT -0400)
Barnstable Municipal-Boardman-Polando Field

Weather History for KHYA - February, 2013

Change the Weather History Date:

Wednesday, February 27, 2013

  Actual Average Record
Temperature  
Mean Temperature 44 °F -  
Max Temperature 46 °F 37 °F 60 °F (1951)
Min Temperature 41 °F 22 °F 1 °F (1970)
Degree Days  
Heating Degree Days 21    
Moisture  
Dew Point 43 °F    
Average Humidity 95    
Maximum Humidity 100    
Minimum Humidity 79    
Precipitation  
Precipitation 0.74 in - - ()
Sea Level Pressure  
Sea Level Pressure 29.74 in    
Wind  
Wind Speed 14 mph (ESE)    
Max Wind Speed 25 mph    
Max Gust Speed 43 mph    
Visibility 4 miles    
Events Fog , Rain    
Averages and records for this station are not official NWS values.
T = Trace of Precipitation, MM = Missing Value Source: NWS Daily Summary

Daily Weather History Graph

Daily Weather History Graph

Search for Another Location

Airport or City:

Trip Planner

Search our weather history database for the weather conditions in past years. The results will help you decide how hot, cold, wet, or windy it might be!

Date:

Astronomy

Feb. 27, 2013 Rise Set
Actual Time 6:18 AM EST 5:29 PM EST
Civil Twilight 5:50 AM EST 5:57 PM EST
Nautical Twilight 5:18 AM EST 6:29 PM EST
Astronomical Twilight 4:46 AM EST 7:01 PM EST
Moon 7:50 PM EST (2/27) 6:50 AM EST (2/27)
Length of Visible Light 12h 06m
Length of Day
11h 10m
Waning Gibbous, 96% of the Moon is Illuminated
Feb 27
Waning Gibbous
Mar 4
Last Quarter
Mar 11
New
Mar 19
First Quarter
Mar 27
Full

Hourly Weather History & Observations

Time (EST) Temp. Windchill Dew Point Humidity Pressure Visibility Wind Dir Wind Speed Gust Speed Precip Events Conditions
12:56 AM 42.1 °F 35.2 °F 36.0 °F 79% 30.08 in 10.0 mi East 12.7 mph 20.7 mph N/A   Overcast
1:47 AM 42.8 °F 38.0 °F 39.2 °F 87% 30.05 in 10.0 mi East 8.1 mph 20.7 mph 0.00 in Rain Light Rain
1:56 AM 43.0 °F 36.8 °F 39.9 °F 89% 30.04 in 10.0 mi East 11.5 mph 20.7 mph 0.00 in Rain Light Rain
2:49 AM 42.8 °F 36.6 °F 41.0 °F 93% 30.00 in 9.0 mi East 11.5 mph 24.2 mph 0.04 in Rain Light Rain
2:56 AM 43.0 °F 36.8 °F 42.1 °F 97% 30.00 in 9.0 mi East 11.5 mph 25.3 mph 0.04 in Rain Light Rain
3:56 AM 44.1 °F 37.1 °F 42.1 °F 93% 29.99 in 9.0 mi East 15.0 mph 24.2 mph 0.01 in Rain Light Rain
4:56 AM 44.1 °F 37.1 °F 43.0 °F 96% 29.96 in 6.0 mi East 15.0 mph 25.3 mph 0.07 in Rain Light Rain
5:26 AM 44.6 °F 37.4 °F 42.8 °F 93% 29.95 in 8.0 mi East 16.1 mph 27.6 mph 0.02 in Rain Light Rain
5:56 AM 45.0 °F 37.6 °F 43.0 °F 93% 29.94 in 9.0 mi ESE 17.3 mph 28.8 mph 0.02 in Rain Light Rain
6:04 AM 44.6 °F 37.4 °F 42.8 °F 93% 29.94 in 9.0 mi ESE 16.1 mph 26.5 mph 0.00 in Rain Light Rain
6:33 AM 44.6 °F 38.1 °F 42.8 °F 93% 29.91 in 6.0 mi East 13.8 mph 26.5 mph 0.02 in Rain Light Rain
6:56 AM 44.1 °F 36.8 °F 43.0 °F 96% 29.88 in 5.0 mi ESE 16.1 mph 28.8 mph 0.04 in Rain Light Rain
7:56 AM 44.1 °F 36.2 °F 43.0 °F 96% 29.85 in 3.0 mi ESE 18.4 mph 39.1 mph 0.08 in Rain Rain
8:56 AM 44.1 °F 36.2 °F 42.1 °F 93% 29.87 in 3.0 mi ESE 18.4 mph 35.7 mph 0.06 in Rain Rain
9:56 AM 44.1 °F 35.9 °F 43.0 °F 96% 29.81 in 2.0 mi ESE 19.6 mph 36.8 mph 0.05 in Rain Light Rain
10:56 AM 44.1 °F 36.2 °F 42.1 °F 93% 29.77 in 2.0 mi East 18.4 mph 32.2 mph 0.08 in Rain Rain
11:56 AM 43.0 °F 33.8 °F 42.1 °F 97% 29.72 in 1.5 mi East 23.0 mph 42.6 mph 0.10 in Rain Rain
12:14 PM 42.8 °F 33.8 °F 42.8 °F 100% 29.71 in 2.0 mi East 21.9 mph 35.7 mph 0.02 in Rain Light Rain
12:48 PM 42.8 °F 34.3 °F 42.8 °F 100% 29.69 in 1.8 mi East 19.6 mph 34.5 mph 0.07 in Rain Rain
12:56 PM 44.1 °F 34.8 °F 42.1 °F 93% 29.69 in 2.5 mi ESE 25.3 mph 41.4 mph 0.07 in Rain Light Rain
1:56 PM 44.1 °F 36.5 °F 42.1 °F 93% 29.64 in 2.5 mi East 17.3 mph 34.5 mph 0.05 in Rain Light Rain
2:17 PM 44.6 °F 36.6 °F 42.8 °F 93% 29.64 in 3.0 mi East 19.6 mph 29.9 mph 0.00 in Rain Light Rain
2:56 PM 44.1 °F 35.9 °F 43.0 °F 96% 29.62 in 3.0 mi East 19.6 mph 33.4 mph 0.01 in Rain Light Rain
3:56 PM 45.0 °F 37.4 °F 43.0 °F 93% 29.57 in 7.0 mi East 18.4 mph 33.4 mph 0.00 in   Overcast
4:24 PM 44.6 °F 38.4 °F 42.8 °F 93% 29.56 in 2.0 mi ESE 12.7 mph 34.5 mph 0.04 in Rain Rain
4:35 PM 44.6 °F 37.8 °F 44.6 °F 100% 29.57 in 5.0 mi East 15.0 mph 34.5 mph 0.04 in Rain Light Rain
4:56 PM 45.0 °F 37.4 °F 44.1 °F 97% 29.58 in 6.0 mi East 18.4 mph 35.7 mph 0.04 in Rain Light Rain
5:56 PM 46.0 °F 39.3 °F 45.0 °F 96% 29.58 in 5.0 mi East 16.1 mph 25.3 mph 0.01 in Rain Light Rain
6:21 PM 46.4 °F 41.9 °F 44.6 °F 93% 29.57 in 3.0 mi East 9.2 mph 21.9 mph 0.01 in Rain Light Rain
6:56 PM 45.0 °F 40.6 °F 45.0 °F 100% 29.56 in 5.0 mi ESE 8.1 mph 17.3 mph 0.01 in   Overcast
7:36 PM 44.6 °F 40.7 °F 44.6 °F 100% 29.54 in 2.5 mi ESE 6.9 mph - N/A   Overcast
7:51 PM 44.6 °F 40.7 °F 44.6 °F 100% 29.55 in 1.2 mi SE 6.9 mph - N/A   Overcast
7:56 PM 45.0 °F 41.8 °F 45.0 °F 100% 29.55 in 1.0 mi SE 5.8 mph - N/A   Overcast
9:56 PM 43.0 °F 37.7 °F 43.0 °F 100% 29.57 in 0.5 mi SW 9.2 mph - N/A Fog Fog
10:46 PM 42.8 °F 37.5 °F 42.8 °F 100% 29.56 in 3.0 mi SSW 9.2 mph - N/A   Overcast
10:56 PM 42.1 °F 36.6 °F 42.1 °F 100% 29.56 in 4.0 mi SSW 9.2 mph - N/A   Overcast
11:30 PM 42.8 °F 37.5 °F 42.8 °F 100% 29.56 in 1.8 mi SSW 9.2 mph - N/A   Overcast
11:51 PM 42.8 °F 36.2 °F 42.8 °F 100% 29.56 in 2.0 mi SW 12.7 mph - N/A   Overcast
11:56 PM 41.0 °F 33.9 °F 41.0 °F 100% 29.57 in 1.8 mi SW 12.7 mph - N/A   Overcast